[[{"header":{"parameterUnit":"m.s-1","parameterCategory":1,"la1":30.2991,"la2":30.254,"lo1":-89.0895,"lo2":-89.0444,"dy":0.0017,"dx":0.0017,"nx":28,"ny":28,"refTime":"2023-11-09T09:00:00:Z","depth":0,"parameterNumber":2,"parameterNumberName":"U-component_of_WINDS"},"data":[0,0,0,0,0,0,0,0,0,0,0,0,0,0,0,0,0,0,0,0,0,0,0,0,0,0,0,0,0,0,0,0,0,0,0,0,0,0,0,0,0,0,0,0,0,0,0,0,0,0,0,0,0,0,0,0,0,0,-0.7048,-0.7049,0,-0.712,-0.7121,-0.7121,-0.7121,-0.712,-0.7119,-0.7118,-0.7195,-0.7198,-0.7201,0,0,0,0,0,0,0,0,0,0,0,0,0,-0.6914,-0.6917,-0.7048,-0.7049,-0.705,-0.712,-0.7121,-0.7122,-0.7121,-0.712,-0.7119,-0.7118,-0.7194,-0.7198,-0.7201,0,0,0,0,0,0,0,0,0,0,0,0,0,-0.6978,-0.6918,-0.7048,-0.7058,-0.706,-0.7119,-0.7121,-0.7122,-0.7122,-0.712,-0.7119,-0.7117,-0.7193,-0.7197,-0.7202,-0.7257,0,0,-0.7215,-0.7217,0,0,0,0,0,0,0,0,-0.6974,-0.6983,-0.7056,-0.7057,-0.7059,-0.711,-0.7102,-0.7167,-0.7122,-0.7098,-0.7118,-0.7117,-0.7168,-0.7175,-0.7191,-0.7261,-0.7264,-0.7215,-0.7218,-0.722,-0.7221,0,0,0,0,0,0,0,-0.697,-0.698,-0.7076,-0.7057,-0.7059,-0.706,-0.7068,-0.7114,-0.714,-0.71,-0.71,-0.7109,-0.7169,-0.7187,-0.7193,-0.7265,-0.7215,-0.7219,-0.7222,-0.7224,-0.7384,-0.7386,0,0,0,0,0,0,-0.6963,-0.6976,-0.7074,-0.7079,-0.7012,-0.7064,-0.7072,-0.7095,-0.714,-0.7145,-0.711,-0.7108,-0.718,-0.7188,-0.7196,-0.7263,-0.722,-0.7224,-0.7227,-0.7383,-0.7385,-0.7386,0,0,0,0,0,0,-0.696,-0.6972,-0.7071,-0.7027,-0.704,-0.7067,-0.7094,-0.7097,-0.7115,-0.7147,-0.7152,-0.7123,-0.7179,-0.719,-0.7242,-0.7266,-0.7226,-0.723,-0.7381,-0.7383,-0.7385,-0.7398,0,0,0,0,0,0,-0.6956,-0.6971,-0.6991,-0.7028,-0.7042,-0.7115,-0.7095,-0.71,-0.7122,-0.7121,-0.7161,-0.7166,-0.7179,-0.7235,-0.7246,-0.7271,-0.7233,-0.7379,-0.7382,-0.7385,-0.7396,-0.7401,-0.7405,0,0,0,0,0,-0.6951,-0.6992,-0.6992,-0.7004,-0.7068,-0.7116,-0.7125,-0.7138,-0.7124,-0.7145,-0.7166,-0.7165,-0.7262,-0.724,-0.7253,-0.7279,-0.7377,-0.7381,-0.7384,-0.7394,-0.74,-0.7405,0,0,0,0,0,0,-0.6958,-0.6997,-0.6997,-0.7051,-0.708,-0.7116,-0.7143,-0.7144,-0.7178,-0.7176,-0.7192,-0.7201,-0.7253,-0.7272,-0.7247,-0.7336,-0.7318,-0.7324,-0.7321,-0.7327,-0.7332,-0.7325,-0.7237,0,0,0,0,0,-0.6966,-0.7001,-0.7033,-0.7078,-0.7092,-0.7115,-0.7137,-0.7144,-0.7175,-0.7188,-0.7212,-0.7244,-0.7281,-0.7306,-0.7342,-0.7399,-0.7408,-0.7424,-0.7429,-0.7433,-0.7437,-0.7469,-0.7477,-0.7398,-0.7398,-0.7398,0,0,-0.6982,-0.7008,-0.7029,-0.708,-0.7103,-0.7139,-0.7125,-0.7164,-0.7192,-0.7194,-0.7244,-0.7264,-0.73,-0.7355,-0.738,-0.7372,-0.7461,-0.7437,-0.744,-0.7443,-0.7474,-0.7481,-0.7488,-0.7401,-0.74,-0.74,0,0,-0.703,-0.7053,-0.7092,-0.7116,-0.7152,-0.7167,-0.7176,-0.7212,-0.7225,-0.7275,-0.7278,-0.7312,-0.7376,-0.7402,-0.7423,-0.7482,-0.7482,-0.7494,-0.7518,-0.7549,-0.7555,-0.7561,-0.7581,-0.7589,-0.7499,-0.7499,-0.7499,0,-0.7046,-0.71,-0.7113,-0.7152,-0.7174,-0.7178,-0.7218,-0.7241,-0.7287,-0.7303,-0.7294,-0.7375,-0.7399,-0.746,-0.7475,-0.7492,-0.7504,-0.7489,-0.7553,-0.7559,-0.7564,-0.7584,-0.7592,-0.75,-0.75,-0.75,-0.75,0,-0.7117,-0.7155,-0.7183,-0.7225,-0.7252,-0.7291,-0.7311,-0.7337,-0.7343,-0.7359,-0.7411,-0.7441,-0.7484,-0.7499,-0.7506,-0.7562,-0.7555,-0.755,-0.7532,-0.7572,-0.7591,-0.7599,-0.7502,-0.7501,-0.7501,-0.7501,0,0,-0.717,-0.722,-0.723,-0.725,-0.729,-0.7319,-0.736,-0.7401,-0.7422,-0.7454,-0.7489,-0.7544,-0.7538,-0.7563,-0.7573,-0.76,-0.7645,-0.7591,-0.7592,-0.7599,-0.7708,-0.7711,-0.7719,-0.7646,-0.7647,-0.7649,-0.7704,0,-0.7221,-0.7291,-0.7305,-0.7366,-0.7401,-0.7406,-0.7441,-0.747,-0.7488,-0.7521,-0.7541,-0.7579,-0.7569,-0.7584,-0.7612,-0.7633,-0.7667,-0.763,-0.7678,-0.768,-0.7667,-0.7729,-0.7732,-0.7783,-0.7712,-0.7713,-0.7714,0,-0.7289,-0.7322,-0.7386,-0.7422,-0.7437,-0.7469,-0.7507,-0.7539,-0.7573,-0.7584,-0.7611,-0.7618,-0.7662,-0.7644,-0.7704,-0.7679,-0.77,-0.7714,-0.7716,-0.772,-0.7698,-0.7733,-0.78,-0.7807,-0.7726,-0.7725,-0.7724,0,-0.732,-0.738,-0.7427,-0.7444,-0.7487,-0.7509,-0.7528,-0.756,-0.7584,-0.7619,-0.7634,-0.7674,-0.7696,-0.7727,-0.7745,-0.773,-0.7804,-0.7787,-0.7815,-0.7814,-0.7829,-0.7827,-0.7898,-0.7845,-0.7845,-0.7845,-0.7844,0,-0.7374,-0.7413,-0.7441,-0.7469,-0.7513,-0.753,-0.7574,-0.7593,-0.7622,-0.7655,-0.7663,-0.7695,-0.7717,-0.7752,-0.7768,-0.7815,-0.7825,-0.7836,-0.7839,-0.7834,-0.7832,-0.7847,-0.7843,-0.7847,-0.7846,-0.7846,-0.7845,0,-0.7415,-0.7435,-0.7485,-0.7522,-0.7532,-0.7563,-0.7596,-0.7624,-0.7642,-0.7684,-0.7695,-0.7723,-0.7765,-0.7787,-0.7839,-0.7849,-0.7902,-0.7905,-0.789,-0.7891,-0.7917,-0.7914,-0.7998,-0.801,-0.795,-0.7951,-0.7951,0,-0.7447,-0.7477,-0.7517,-0.7539,-0.7559,-0.7595,-0.7619,-0.7637,-0.7662,-0.7704,-0.7727,-0.7769,-0.7803,-0.787,-0.7896,-0.7936,-0.7938,-0.7965,-0.7944,-0.7939,-0.7937,-0.7935,-0.7938,-0.7968,-0.7969,-0.7969,-0.797,0,-0.7503,-0.7511,-0.7545,-0.7583,-0.7611,-0.7642,-0.7672,-0.7691,-0.7714,-0.7742,-0.7784,-0.7811,-0.7864,-0.7906,-0.7948,-0.7969,-0.7974,-0.7976,-0.7985,-0.7979,-0.7969,-0.7974,-0.7899,-0.7974,-0.7974,-0.7973,-0.7973,-0.7973,-0.754,-0.7566,-0.7599,-0.7636,-0.7661,-0.769,-0.7718,-0.774,-0.7774,-0.7818,-0.7828,-0.7872,-0.7907,-0.7964,-0.7987,-0.8023,-0.8017,-0.8029,-0.8032,-0.8035,-0.8035,-0.7965,-0.8031,-0.8031,-0.8031,-0.8031,-0.803,0,-0.7595,-0.7616,-0.765,-0.7692,-0.7722,-0.7723,-0.7758,-0.7783,-0.7821,-0.7853,-0.7886,-0.7935,-0.7975,-0.8005,-0.8047,-0.807,-0.8073,-0.808,-0.8078,-0.8083,-0.8038,-0.8026,-0.8077,-0.8077,-0.8077,-0.8077,-0.8077,-0.8077,-0.7626,-0.7672,-0.7684,-0.7743,-0.7764,-0.7806,-0.7826,-0.7853,-0.7878,-0.7931,-0.7964,-0.7983,-0.8015,-0.8059,-0.8097,-0.8105,-0.8119,-0.8126,-0.8134,-0.8091,-0.8086,-0.8081,-0.807,-0.8129,-0.8129,-0.8176,-0.8176,-0.8176]},{"header":{"parameterUnit":"m.s-1","parameterCategory":1,"la1":30.2991,"la2":30.254,"lo1":-89.0895,"lo2":-89.0444,"dy":0.0017,"dx":0.0017,"nx":28,"ny":28,"refTime":"2023-11-09T09:00:00:Z","depth":0,"parameterNumber":3,"parameterNumberName":"V-component_of_WINDS"},"data":[0,0,0,0,0,0,0,0,0,0,0,0,0,0,0,0,0,0,0,0,0,0,0,0,0,0,0,0,0,0,0,0,0,0,0,0,0,0,0,0,0,0,0,0,0,0,0,0,0,0,0,0,0,0,0,0,0,0,-0.2011,-0.201,0,-0.1876,-0.1874,-0.1873,-0.1845,-0.1846,-0.1847,-0.1848,-0.1709,-0.1704,-0.17,0,0,0,0,0,0,0,0,0,0,0,0,0,-0.2244,-0.224,-0.2011,-0.201,-0.2008,-0.1876,-0.1874,-0.1872,-0.1845,-0.1846,-0.1848,-0.1849,-0.1711,-0.1705,-0.1699,0,0,0,0,0,0,0,0,0,0,0,0,0,-0.2129,-0.2239,-0.2012,-0.1978,-0.1974,-0.1877,-0.1874,-0.1872,-0.1845,-0.1846,-0.1848,-0.1849,-0.1712,-0.1706,-0.1699,-0.1624,0,0,-0.1677,-0.1674,0,0,0,0,0,0,0,0,-0.2136,-0.2121,-0.1985,-0.198,-0.1975,-0.1879,-0.1905,-0.1789,-0.1845,-0.1894,-0.1848,-0.185,-0.1764,-0.1753,-0.1724,-0.1618,-0.1612,-0.1677,-0.1672,-0.1669,-0.1667,0,0,0,0,0,0,0,-0.2144,-0.2126,-0.1958,-0.1983,-0.1977,-0.197,-0.1955,-0.1883,-0.1822,-0.189,-0.1887,-0.1872,-0.1762,-0.1731,-0.1721,-0.161,-0.1677,-0.1671,-0.1666,-0.1663,-0.1435,-0.1433,0,0,0,0,0,0,-0.2158,-0.2133,-0.1962,-0.1954,-0.2061,-0.1964,-0.1948,-0.1908,-0.1823,-0.1811,-0.1871,-0.1871,-0.1742,-0.1729,-0.1716,-0.1623,-0.1669,-0.1663,-0.1659,-0.1437,-0.1435,-0.1433,0,0,0,0,0,0,-0.2163,-0.2143,-0.1967,-0.2043,-0.202,-0.1959,-0.1914,-0.1905,-0.1874,-0.1808,-0.1797,-0.185,-0.1743,-0.1726,-0.1647,-0.1618,-0.166,-0.1653,-0.1439,-0.1436,-0.1434,-0.1438,0,0,0,0,0,0,-0.217,-0.2145,-0.2116,-0.2042,-0.2016,-0.1902,-0.1913,-0.1901,-0.1862,-0.1861,-0.1786,-0.1775,-0.1743,-0.1658,-0.164,-0.1609,-0.1648,-0.1442,-0.1438,-0.1435,-0.144,-0.1435,-0.1431,0,0,0,0,0,-0.2178,-0.2123,-0.2115,-0.2095,-0.1979,-0.19,-0.1885,-0.1849,-0.186,-0.1831,-0.1788,-0.1778,-0.1624,-0.165,-0.163,-0.1596,-0.1443,-0.1439,-0.1435,-0.1442,-0.1436,-0.1432,0,0,0,0,0,0,-0.2195,-0.2112,-0.2103,-0.2022,-0.1968,-0.1896,-0.1857,-0.1844,-0.1786,-0.1787,-0.1745,-0.1728,-0.1652,-0.1616,-0.1647,-0.152,-0.1534,-0.1526,-0.1546,-0.154,-0.1536,-0.1547,-0.1642,0,0,0,0,0,-0.2189,-0.2132,-0.2063,-0.1998,-0.1972,-0.1919,-0.1883,-0.186,-0.1803,-0.178,-0.1731,-0.1676,-0.1615,-0.1575,-0.1516,-0.1434,-0.1417,-0.1401,-0.1397,-0.1394,-0.1387,-0.1341,-0.1333,-0.1419,-0.1419,-0.1419,0,0,-0.2176,-0.2124,-0.2091,-0.2,-0.1956,-0.1897,-0.19,-0.1838,-0.1794,-0.177,-0.1693,-0.1656,-0.1591,-0.1511,-0.1473,-0.1478,-0.136,-0.1388,-0.1386,-0.1381,-0.1336,-0.1328,-0.1321,-0.1416,-0.1417,-0.1417,0,0,-0.2124,-0.2079,-0.202,-0.1975,-0.1908,-0.1873,-0.1859,-0.1788,-0.1763,-0.1685,-0.1665,-0.1612,-0.1508,-0.1462,-0.1426,-0.1355,-0.1343,-0.1337,-0.1315,-0.1271,-0.1264,-0.1258,-0.1233,-0.1224,-0.133,-0.133,-0.133,0,-0.2117,-0.2028,-0.1991,-0.193,-0.189,-0.1866,-0.1806,-0.1764,-0.168,-0.1653,-0.1661,-0.1529,-0.1484,-0.1392,-0.1375,-0.1346,-0.1328,-0.1345,-0.1268,-0.1261,-0.1255,-0.1231,-0.1222,-0.133,-0.133,-0.133,-0.133,0,-0.2023,-0.1962,-0.1922,-0.1843,-0.1799,-0.1738,-0.1691,-0.1651,-0.1631,-0.1596,-0.1517,-0.1461,-0.139,-0.1366,-0.1346,-0.1272,-0.1277,-0.1277,-0.129,-0.1247,-0.1224,-0.1214,-0.1329,-0.133,-0.133,-0.133,0,0,-0.1978,-0.1878,-0.1864,-0.1828,-0.1752,-0.1704,-0.1642,-0.1572,-0.1538,-0.1481,-0.1428,-0.134,-0.1339,-0.1297,-0.1272,-0.1233,-0.1181,-0.1237,-0.1235,-0.1229,-0.1096,-0.1097,-0.1087,-0.1173,-0.1171,-0.1169,-0.1101,0,-0.1916,-0.1806,-0.1771,-0.1678,-0.1621,-0.1597,-0.1543,-0.149,-0.1455,-0.1401,-0.1362,-0.1301,-0.1304,-0.1278,-0.1239,-0.1196,-0.1154,-0.12,-0.1123,-0.112,-0.1141,-0.1074,-0.1075,-0.1014,-0.1092,-0.109,-0.1089,0,-0.183,-0.1773,-0.1675,-0.1606,-0.158,-0.1533,-0.1466,-0.1415,-0.1354,-0.1331,-0.1284,-0.1262,-0.1196,-0.1213,-0.1121,-0.1154,-0.1119,-0.1094,-0.109,-0.1082,-0.1103,-0.1065,-0.0994,-0.0985,-0.1074,-0.1075,-0.1076,0,-0.1808,-0.1705,-0.1634,-0.1603,-0.152,-0.1488,-0.1451,-0.1392,-0.1352,-0.1294,-0.1267,-0.1201,-0.1165,-0.1115,-0.1075,-0.1091,-0.0987,-0.1001,-0.0966,-0.0967,-0.0946,-0.0948,-0.0868,-0.0923,-0.0923,-0.0923,-0.0923,0,-0.1744,-0.1685,-0.1622,-0.1579,-0.1512,-0.1471,-0.1406,-0.1368,-0.1316,-0.1263,-0.1237,-0.1189,-0.1139,-0.1084,-0.1052,-0.0981,-0.0965,-0.0944,-0.0937,-0.0947,-0.095,-0.0924,-0.0928,-0.0921,-0.0921,-0.0922,-0.0922,0,-0.1707,-0.1663,-0.1584,-0.1512,-0.1492,-0.1446,-0.1384,-0.134,-0.1304,-0.1238,-0.1221,-0.1163,-0.1097,-0.1052,-0.0967,-0.0945,-0.0868,-0.0861,-0.0889,-0.0886,-0.0853,-0.0857,-0.0756,-0.074,-0.0805,-0.0805,-0.0804,0,-0.167,-0.1624,-0.1547,-0.1511,-0.1475,-0.1416,-0.1375,-0.1333,-0.1292,-0.1219,-0.1183,-0.1115,-0.1058,-0.0953,-0.0904,-0.0838,-0.083,-0.0799,-0.082,-0.0831,-0.0829,-0.0833,-0.0828,-0.0796,-0.0795,-0.0795,-0.0794,0,-0.1607,-0.1588,-0.153,-0.1465,-0.1418,-0.1364,-0.131,-0.1282,-0.123,-0.1184,-0.1116,-0.1072,-0.0985,-0.0918,-0.0848,-0.081,-0.0793,-0.0788,-0.0777,-0.0787,-0.0805,-0.0795,-0.0881,-0.0791,-0.0791,-0.0791,-0.0792,-0.0792,-0.1569,-0.1528,-0.1467,-0.1404,-0.1359,-0.1309,-0.1264,-0.1222,-0.1165,-0.1091,-0.1069,-0.0999,-0.0938,-0.0842,-0.0803,-0.0747,-0.0749,-0.0733,-0.0729,-0.0725,-0.0725,-0.0814,-0.0734,-0.0734,-0.0734,-0.0734,-0.0734,0,-0.1506,-0.1466,-0.1408,-0.1334,-0.1284,-0.1273,-0.1213,-0.1172,-0.111,-0.1055,-0.1,-0.0921,-0.0855,-0.0801,-0.0732,-0.0698,-0.0688,-0.0681,-0.0684,-0.0675,-0.0727,-0.0744,-0.069,-0.069,-0.069,-0.069,-0.069,-0.069,-0.1467,-0.1396,-0.1369,-0.1275,-0.1235,-0.1166,-0.1132,-0.1086,-0.1042,-0.0955,-0.0901,-0.0866,-0.081,-0.0738,-0.0677,-0.0663,-0.0639,-0.0633,-0.0617,-0.0667,-0.0672,-0.0676,-0.0692,-0.0629,-0.0629,-0.057,-0.057,-0.057]}]]